Location: Gilevgi
(36.8751°N, 30.0581°E)
Time: 16:30:24
(UTC+00:00)

SPOT 1/Viking Rocket - Pass Details

Date: 11 December 2025
Orbit: 772 x 790 km, 98.2° (Epoch: 16 January)

Event Time Altitude Azimuth Distance (km) Brightness Sun altitude
Rises 15:50:33 0° 152° (SSE) 3,269 6.7 -13.1°
Reaches altitude 10° 15:52:55 10° 147° (SSE) 2,345 5.9 -13.5°
Maximum altitude 15:57:55 51° 73° (ENE) 988 3.7 -14.5°
Drops below altitude 10° 16:02:57 10° 358° (N) 2,359 5.9 -15.4°
Sets 16:05:20 0° 354° (N) 3,291 6.7 -15.9°
